| time (UTC) | temp F | wind direction | speed MPH | gust MPH | rain 1hr in | rain 24hr in | rain mn in | humidity % | barometer mb |
| 20260906074614 | 67 | 19 | 4.0 | 8.0 | 0.00 | 0.00 | 0.00 | 90 | 1010.4 |
| 20260906073101 | 67 | 63 | 3.0 | 7.0 | 0.00 | 0.00 | 0.00 | 90 | 1010.3 |
| 20260906071603 | 67 | 65 | 1.0 | 6.0 | 0.00 | 0.00 | 0.00 | 91 | 1010.7 |
| 20260906070056 | 67 | 93 | 0.0 | 2.0 | 0.00 | 0.00 | 0.00 | 90 | 1010.8 |
| 20260906064556 | 67 | 94 | 0.0 | 4.0 | 0.00 | 0.00 | 0.00 | 90 | 1010.9 |
| 20260906063055 | 67 | 66 | 0.0 | 5.0 | 0.00 | 0.00 | 0.00 | 90 | 1011.1 |
| 20260906061557 | 67 | 81 | 1.0 | 5.0 | 0.00 | 0.00 | 0.00 | 89 | 1011.2 |
| 20260906060052 | 67 | 43 | 1.0 | 5.0 | 0.00 | 0.00 | 0.00 | 89 | 1011.3 |
| 20260906054552 | 67 | 34 | 2.0 | 6.0 | 0.00 | 0.00 | 0.00 | 89 | 1011.4 |
| 20260906053051 | 67 | 76 | 2.0 | 6.0 | 0.00 | 0.00 | 0.00 | 88 | 1011.5 |
| 20260906051559 | 67 | 34 | 1.0 | 2.0 | 0.00 | 0.00 | 0.00 | 88 | 1011.7 |
| 20260906050053 | 67 | 61 | 0.0 | 2.0 | 0.00 | 0.00 | 0.00 | 87 | 1011.8 |
| 20260906044548 | 67 | 61 | 0.0 | 2.0 | 0.00 | 0.00 | 0.00 | 87 | 1011.8 |
| 20260906043047 | 67 | 61 | 0.0 | 5.0 | 0.00 | 0.00 | 0.00 | 87 | 1011.6 |
| 20260906041546 | 67 | 47 | 2.0 | 5.0 | 0.00 | 0.00 | 0.00 | 86 | 1011.8 |
| 20260906040047 | 68 | 71 | 2.0 | 6.0 | 0.00 | 0.00 | 0.00 | 86 | 1011.8 |
| 20260906034544 | 68 | 53 | 1.0 | 6.0 | 0.00 | 0.00 | 0.00 | 85 | 1011.8 |
| 20260906033047 | 68 | 57 | 4.0 | 7.0 | 0.00 | 0.00 | 0.00 | 84 | 1011.8 |
| 20260906031555 | 68 | 47 | 4.0 | 6.0 | 0.00 | 0.00 | 0.00 | 84 | 1011.8 |
| 20260906030043 | 68 | 36 | 5.0 | 9.0 | 0.00 | 0.00 | 0.00 | 84 | 1011.8 |
| 20260906024541 | 68 | 106 | 6.0 | 10.0 | 0.00 | 0.00 | 0.00 | 83 | 1011.7 |
| 20260906023040 | 69 | 53 | 5.0 | 10.0 | 0.00 | 0.00 | 0.00 | 82 | 1011.6 |
| 20260906021539 | 69 | 49 | 5.0 | 12.0 | 0.00 | 0.00 | 0.00 | 82 | 1011.6 |
| 20260906020039 | 69 | 35 | 6.0 | 11.0 | 0.00 | 0.00 | 0.00 | 81 | 1011.5 |
| 20260906014539 | 69 | 69 | 6.0 | 12.0 | 0.00 | 0.00 | 0.00 | 80 | 1011.5 |
| 20260906013038 | 69 | 60 | 3.0 | 11.0 | 0.00 | 0.00 | 0.00 | 80 | 1011.5 |
| 20260906011540 | 70 | 46 | 5.0 | 10.0 | 0.00 | 0.00 | 0.00 | 79 | 1011.3 |
| 20260906010036 | 70 | 60 | 5.0 | 10.0 | 0.00 | 0.00 | 0.00 | 77 | 1011.1 |
| 20260906004537 | 70 | 86 | 5.0 | 13.0 | 0.00 | 0.00 | 0.00 | 75 | 1010.9 |
| 20260906003034 | 71 | 75 | 8.0 | 16.0 | 0.00 | 0.00 | 0.00 | 74 | 1010.5 |
| 20260906001533 | 71 | 55 | 5.0 | 14.0 | 0.00 | 0.00 | 0.00 | 73 | 1010.5 |
| 20260906000034 | 71 | 119 | 5.0 | 11.0 | 0.00 | 0.00 | 0.00 | 71 | 1010.5 |
| 20260905234534 | 72 | 76 | 6.0 | 11.0 | 0.00 | 0.00 | 0.00 | 69 | 1010.4 |
| 20260905233035 | 72 | 44 | 3.0 | 11.0 | 0.00 | 0.00 | 0.00 | 67 | 1010.6 |
| 20260905231532 | 73 | 351 | 5.0 | 12.0 | 0.00 | 0.00 | 0.00 | 65 | 1010.4 |
| 20260905230036 | 73 | 69 | 5.0 | 12.0 | 0.00 | 0.00 | 0.00 | 63 | 1010.6 |
| 20260905224634 | 74 | 71 | 4.0 | 9.0 | 0.00 | 0.00 | 0.00 | 62 | 1010.8 |
| 20260905223030 | 75 | 9 | 5.0 | 11.0 | 0.00 | 0.00 | 0.00 | 59 | 1010.7 |
| 20260905221530 | 75 | 28 | 7.0 | 16.0 | 0.00 | 0.00 | 0.00 | 57 | 1010.6 |
| 20260905220035 | 76 | 67 | 5.0 | 13.0 | 0.00 | 0.00 | 0.00 | 55 | 1010.6 |
| 20260905214529 | 76 | 54 | 6.0 | 14.0 | 0.00 | 0.00 | 0.00 | 55 | 1010.5 |
| 20260905213028 | 76 | 98 | 6.0 | 15.0 | 0.00 | 0.00 | 0.00 | 58 | 1010.5 |
| 20260905211528 | 76 | 28 | 7.0 | 13.0 | 0.00 | 0.00 | 0.00 | 57 | 1010.6 |
| 20260905210027 | 76 | 307 | 5.0 | 14.0 | 0.00 | 0.00 | 0.00 | 56 | 1010.4 |
| 20260905204527 | 77 | 25 | 4.0 | 10.0 | 0.00 | 0.00 | 0.00 | 56 | 1010.6 |
| 20260905203026 | 76 | 69 | 4.0 | 10.0 | 0.00 | 0.00 | 0.00 | 56 | 1010.6 |
| 20260905201526 | 75 | 305 | 4.0 | 9.0 | 0.00 | 0.00 | 0.00 | 57 | 1010.7 |
| 20260905200026 | 74 | 315 | 4.0 | 11.0 | 0.00 | 0.00 | 0.00 | 57 | 1010.6 |
| 20260905194525 | 74 | 121 | 3.0 | 12.0 | 0.00 | 0.00 | 0.00 | 57 | 1010.2 |
| 20260905193027 | 74 | 113 | 5.0 | 14.0 | 0.00 | 0.00 | 0.00 | 58 | 1010.1 |
| 20260905191524 | 74 | 355 | 6.0 | 18.0 | 0.00 | 0.00 | 0.00 | 55 | 1010.0 |
| 20260905190024 | 74 | 36 | 6.0 | 16.0 | 0.00 | 0.00 | 0.00 | 55 | 1010.0 |
| 20260905184525 | 73 | 322 | 4.0 | 13.0 | 0.00 | 0.00 | 0.00 | 61 | 1010.5 |
| 20260905183019 | 70 | 303 | 4.0 | 11.0 | 0.00 | 0.00 | 0.00 | 68 | 1010.8 |
| 20260905181518 | 68 | 136 | 3.0 | 12.0 | 0.00 | 0.00 | 0.00 | 72 | 1010.9 |
| 20260905180017 | 68 | 11 | 6.0 | 11.0 | 0.00 | 0.00 | 0.00 | 75 | 1011.2 |
| 20260905174521 | 68 | 24 | 4.0 | 9.0 | 0.00 | 0.00 | 0.00 | 73 | 1012.1 |
| 20260905173023 | 69 | 79 | 8.0 | 24.0 | 0.00 | 0.00 | 0.00 | 71 | 1012.1 |
| 20260905171519 | 70 | 27 | 9.0 | 21.0 | 0.00 | 0.00 | 0.00 | 72 | 1012.5 |
| 20260905170010 | 72 | 233 | 6.0 | 16.0 | 0.00 | 0.00 | 0.00 | 70 | 1013.3 |
| 20260905164508 | 76 | 32 | 9.0 | 25.0 | 0.00 | 0.00 | 0.00 | 62 | 1013.4 |
| 20260905163007 | 78 | 9 | 6.0 | 12.0 | 0.00 | 0.00 | 0.00 | 65 | 1013.1 |
| 20260905161507 | 78 | 202 | 4.0 | 12.0 | 0.00 | 0.00 | 0.00 | 67 | 1012.8 |
| 20260905160010 | 79 | 355 | 6.0 | 15.0 | 0.00 | 0.00 | 0.00 | 65 | 1012.7 |
| 20260905154505 | 79 | 55 | 7.0 | 14.0 | 0.00 | 0.00 | 0.00 | 69 | 1012.9 |
| 20260905153001 | 78 | 90 | 4.0 | 10.0 | 0.00 | 0.00 | 0.00 | 71 | 1012.9 |
| 20260905151607 | 77 | 80 | 5.0 | 13.0 | 0.00 | 0.00 | 0.00 | 74 | 1012.7 |
| 20260905150058 | 77 | 59 | 4.0 | 13.0 | 0.00 | 0.00 | 0.00 | 72 | 1012.4 |
| 20260905144554 | 76 | 153 | 7.0 | 15.0 | 0.00 | 0.00 | 0.00 | 75 | 1012.6 |
| 20260905143051 | 76 | 280 | 5.0 | 23.0 | 0.00 | 0.00 | 0.00 | 75 | 1012.7 |
| 20260905141547 | 76 | 317 | 5.0 | 14.0 | 0.00 | 0.00 | 0.00 | 75 | 1012.6 |
| 20260905140043 | 75 | 80 | 5.0 | 13.0 | 0.00 | 0.00 | 0.00 | 77 | 1012.5 |
| 20260905134538 | 75 | 58 | 6.0 | 13.0 | 0.00 | 0.00 | 0.00 | 78 | 1012.5 |
| 20260905133034 | 74 | 109 | 5.0 | 12.0 | 0.00 | 0.00 | 0.00 | 78 | 1012.7 |
| 20260905131530 | 74 | 44 | 5.0 | 10.0 | 0.00 | 0.00 | 0.00 | 79 | 1013.0 |
| 20260905130024 | 74 | 265 | 4.0 | 9.0 | 0.00 | 0.00 | 0.00 | 78 | 1013.0 |
| 20260905124526 | 74 | 5 | 5.0 | 10.0 | 0.00 | 0.00 | 0.00 | 78 | 1013.1 |
| 20260905123018 | 73 | 44 | 5.0 | 12.0 | 0.00 | 0.00 | 0.00 | 78 | 1012.9 |
| 20260905121517 | 73 | 77 | 5.0 | 9.0 | 0.00 | 0.00 | 0.00 | 78 | 1012.8 |
| 20260905120017 | 72 | 42 | 5.0 | 12.0 | 0.00 | 0.00 | 0.00 | 78 | 1012.6 |
| 20260905114514 | 72 | 36 | 5.0 | 10.0 | 0.00 | 0.00 | 0.00 | 78 | 1012.5 |
| 20260905113008 | 72 | 52 | 6.0 | 10.0 | 0.00 | 0.00 | 0.00 | 78 | 1012.5 |
| 20260905111506 | 71 | 82 | 6.0 | 10.0 | 0.00 | 0.00 | 0.00 | 79 | 1012.4 |
| 20260905110003 | 71 | 5 | 1.0 | 6.0 | 0.00 | 0.00 | 0.00 | 78 | 1012.2 |
| 20260905104502 | 71 | 58 | 3.0 | 8.0 | 0.00 | 0.00 | 0.00 | 77 | 1012.0 |
| 20260905103003 | 71 | 53 | 5.0 | 10.0 | 0.00 | 0.00 | 0.00 | 77 | 1012.0 |
| 20260905101601 | 71 | 99 | 2.0 | 8.0 | 0.00 | 0.00 | 0.00 | 77 | 1012.0 |
| 20260905100100 | 71 | 16 | 4.0 | 8.0 | 0.00 | 0.00 | 0.00 | 77 | 1012.0 |
| 20260905094559 | 71 | 44 | 3.0 | 9.0 | 0.00 | 0.00 | 0.00 | 77 | 1011.9 |
| 20260905093058 | 71 | 40 | 3.0 | 8.0 | 0.00 | 0.00 | 0.00 | 77 | 1011.9 |
| 20260905091620 | 72 | 70 | 2.0 | 12.0 | 0.00 | 0.00 | 0.00 | 77 | 1011.9 |
| 20260905090117 | 72 | 71 | 3.0 | 10.0 | 0.00 | 0.00 | 0.00 | 76 | 1012.0 |
| 20260905084606 | 72 | 78 | 2.0 | 8.0 | 0.00 | 0.00 | 0.00 | 76 | 1012.2 |
| 20260905083053 | 72 | 103 | 2.0 | 5.0 | 0.00 | 0.00 | 0.00 | 75 | 1012.4 |
| 20260905081553 | 72 | 66 | 3.0 | 5.0 | 0.00 | 0.00 | 0.00 | 75 | 1012.5 |
| 20260905080055 | 72 | 26 | 2.0 | 5.0 | 0.00 | 0.00 | 0.00 | 74 | 1012.5 |